Regional Weather Roundup
Issued by NWS

Home | Current Version | Previous Version | Graphics & Text | Print | Product List | Glossary On
Versions: 1 2 3 4 5 6 7 8 9 10 11 12 13 14 15 16 17 18 19 20 21 22 23 24 25 26 27
000
ASUS45 KBOU 291610
RWRCO

WEATHER ROUNDUP FOR COLORADO
NATIONAL WEATHER SERVICE DENVER/BOULDER CO
1000 AM MDT THU SEP 29 2016

NOTE: "FAIR" INDICATES FEW OR NO CLOUDS BELOW 12000 FEET WITH NO
SIGNIFICANT WEATHER AND/OR OBSTRUCTIONS TO VISIBILITY.

COZ001>005-013-030-031-291700-
...NORTHWEST COLORADO...

CITY           SKY/WX    TMP DP  RH WIND       PRES   REMARKS
CRAIG          CLOUDY    54  40  59 CALM      30.45R
HAYDEN         FAIR      55  34  44 S3        30.46R
MEEKER         FAIR      58  44  60 E3        30.45F
MOUNT WERNER   NOT AVBL
STEAMBOAT SPGS FAIR      56  35  46 CALM      30.46F
WALDEN           N/A     59  27  29 CALM      30.53S
$$

COZ006>008-011-291700-
...WEST CENTRAL VALLEYS...

CITY           SKY/WX    TMP DP  RH WIND       PRES   REMARKS
GRAND JUNCTION CLOUDY    60  54  80 NW7       30.38S
MONTROSE       PTSUNNY   61  43  51 CALM      30.45R
EAGLE          SUNNY     59  30  33 CALM      30.49F
RIFLE          FAIR      62  43  49 N5        30.41S
DELTA          NOT AVBL
NUCLA          CLOUDY    55  48  76 CALM      30.48S
$$

COZ017>023-064>068-291700-
...SOUTHWEST COLORADO...

CITY           SKY/WX    TMP DP  RH WIND       PRES   REMARKS
DURANGO        LGT RAIN  53  47  79 N6        30.54R
CORTEZ         CLOUDY    60  50  69 CALM      30.46R
PAGOSA SPRINGS FAIR      58  33  38 SW5       30.57R
TELLURIDE      CLOUDY    50  40  68 S7        30.64R
WOLF CREEK PAS FAIR      45  28  53 SW12G18   30.80S
$$

COZ009-010-012-014-032>034-037-058>063-291700-
...CENTRAL COLORADO...

CITY           SKY/WX    TMP DP  RH WIND       PRES   REMARKS
ASPEN          FAIR      61  33  35 CALM      30.49F
BUENA VISTA    FAIR      58  27  30 CALM      30.56S
COPPER MTN     FAIR      54  27  35 SE9       30.77S
BERTHOUD PASS  FAIR      45  32  61 N7        30.80R
COTTONWOOD PAS FAIR      59  27  29 E5        30.65F
GUNNISON       FAIR      51  32  48 CALM      30.55S
KREMMLING      FAIR      54  28  37 CALM      30.53F
LEADVILLE      FAIR      51  24  34 W5        30.63F
MONARCH PASS   FAIR      46  27  46 SW13      30.87S
SALIDA         NOT AVBL
SUNLIGHT       PTSUNNY   52  34  50 CALM      30.71S
WILKERSON PASS FAIR      46  23  39 SW8G21    30.76S
$$

COZ069>075-291700-
...SAN LUIS VALLEY/SANGRE DE CRISTO MOUNTAINS...

CITY           SKY/WX    TMP DP  RH WIND       PRES   REMARKS
ALAMOSA        FAIR      56  28  34 W3        30.56R
LA VETA PASS   FAIR      55  28  35 MISG      30.69R
SAGUACHE       NOT AVBL
$$

COZ035-036-038>040-291700-
...NORTHERN COLORADO FRONT RANGE...

CITY           SKY/WX    TMP DP  RH WIND       PRES   REMARKS
DENVER INTL AP FAIR      63  38  39 NW5       30.37S
DMNS CITY PARK   N/A     65  35  32 N2        30.37S
AURORA         MOSUNNY   65  37  35 CALM      30.38F
FRONT RANGE AP MOSUNNY   66  37  34 W3        30.38S
ERIE MUNI ARPT FAIR      62  38  41 CALM      30.36S
BOULDER MUN AP FAIR      64  37  36 SE3       30.35F
CENTENNIAL     FAIR      64  37  36 CALM      30.38S
BROOMFIELD     MOSUNNY   63  37  39 VRB5      30.38F
FORT COLLINS   FAIR      57  43  58 N8        30.36F
LONGMONT       FAIR      65  42  42 CALM      30.37F
$$

COZ041-046-047-076>085-087-088-291700-
...PIKES PEAK/PALMER DIVIDE AND SOUTHERN FOOTHILLS...

CITY           SKY/WX    TMP DP  RH WIND       PRES   REMARKS
COLO. SPRINGS  FAIR      60  40  47 CALM      30.45F
A. F. ACADEMY  FAIR      60  39  46 S3        30.45F
SCHRIEVER AFB  NOT AVBL
ELLICOTT       NOT AVBL
FALCON         FAIR      62  36  38 CALM      30.48S
FORT CARSON    FAIR      58  40  51 S5        30.43S
LIMON          FAIR      60  43  53 S13       30.43S
MONUMENT HILL  FAIR      70  30  23 SW8       30.47F
TRINIDAD       FAIR      67  36  31 VRB3      30.44S
$$

COZ042>045-048>051-090-091-291700-
...NORTHEAST COLORADO...

CITY           SKY/WX    TMP DP  RH WIND       PRES   REMARKS
GREELEY ARPT   FAIR      57  43  58 CALM      30.36F
AKRON          FAIR      65  41  41 S18       30.38S
BURLINGTON     FAIR      64  37  36 S20       30.42R
WRAY           FAIR      64  37  36 S8        30.41R
STERLING       FAIR      66  45  45 SW7       30.35S
HOLYOKE        FAIR      64  39  39 SE10      30.40S
FORT MORGAN    FAIR      65  40  38 S10       30.37S
$$

COZ086-089-092>099-291700-
...SOUTHEAST COLORADO...

CITY           SKY/WX    TMP DP  RH WIND       PRES   REMARKS
PUEBLO         FAIR      60  41  49 S6        30.40F
LA JUNTA       FAIR      60  43  53 SW6       30.40R
LAMAR          FAIR      69  42  37 SE17      30.38F
SPRINGFIELD      N/A     64  44  48 S18       30.43F
$$




USA.gov is the U.S. government's official web portal to all federal, state and local government web resources and services.